Location: Strohbehn Observatory
(42.4649°N, 93.8239°W)
Time: 07:54:09
(UTC-05:00)

SL-16 R/B - Visible Passes

Search period start: 03 September 2015 00:00
Search period end: 13 September 2015 00:00
Orbit: 843 x 846 km, 71.0° (Epoch: 01 September)

Date Brightness Start Highest point End Pass type
(mag) Time Alt. Az. Time Alt. Az. Time Alt. Az.
03 Sep 4.6 00:28:56 14° NE 00:28:56 14° NE 00:29:46 10° NE visible
03 Sep 4.2 02:10:48 23° NNW 02:10:48 23° NNW 02:13:35 10° N visible
04 Sep 4.7 00:14:57 13° NE 00:14:57 13° NE 00:15:31 10° NE visible
04 Sep 4.2 01:56:48 22° NNW 01:56:48 22° NNW 01:59:25 10° N visible
05 Sep 4.7 00:00:56 12° NE 00:00:56 12° NE 00:01:17 10° NE visible
05 Sep 4.3 01:42:47 22° NNW 01:42:47 22° NNW 01:45:13 10° N visible
05 Sep 4.8 23:46:53 11° NE 23:46:53 11° NE 23:47:02 10° NE visible
06 Sep 4.4 01:28:45 21° N 01:28:45 21° N 01:31:02 10° N visible
07 Sep 4.4 01:14:41 21° N 01:14:41 21° N 01:16:50 10° N visible
08 Sep 4.4 01:00:36 20° N 01:00:36 20° N 01:02:39 10° N visible
09 Sep 4.5 00:46:29 20° N 00:46:29 20° N 00:48:27 10° N visible
10 Sep 4.5 00:32:20 20° N 00:32:20 20° N 00:34:15 10° N visible
11 Sep 4.4 00:18:08 20° N 00:18:08 20° N 00:20:04 10° N visible
12 Sep 4.4 00:03:54 20° N 00:03:54 20° N 00:05:52 10° N visible
12 Sep 4.3 23:49:36 21° N 23:49:36 21° N 23:51:40 10° NNE visible
